When you browse on this site, cookies collect data to enhance your experience and personalize the content and advertising you see.
Visit our Privacy Policy to learn more. By continuing to use the site, you agree to this use of cookies and data.
  • In Latvia
  • List of Countries
  • For 7 days
  • Water Temperature
  • Satellite Maps
  • Weather Map
  • Weather Widgets
  • user-avatar
    Login

    Hourly Weather Maloe Fominskoe

    Today, 16 November, Friday

    Time Temperature Precipitation Wind Pressure Humidity
    00:00 -4°C° 0 mm 2 mps 766 mmHg 90%
    01:00 -4°C° 0 mm 2 mps 766 mmHg 90%
    02:00 -3°C° 0 mm 2 mps 766 mmHg 90%
    03:00 -3°C° 0 mm 2 mps 766 mmHg 90%
    04:00 -4°C° 0 mm 3 mps 766 mmHg 91%
    05:00 -4°C° 0 mm 3 mps 766 mmHg 92%
    06:00 -4°C° 0 mm 3 mps 767 mmHg 92%
    07:00 -4°C° 0 mm 3 mps 767 mmHg 93%
    08:00 -5°C° 0 mm 3 mps 767 mmHg 93%
    09:00 -4°C° 0 mm 3 mps 767 mmHg 90%
    10:00 -2°C° 0 mm 3 mps 767 mmHg 87%
    11:00 -1°C° 0 mm 3 mps 767 mmHg 84%
    12:00 -1°C° 0 mm 3 mps 767 mmHg 84%
    13:00 -1°C° 0 mm 3 mps 767 mmHg 84%
    14:00 -1°C° 0 mm 3 mps 767 mmHg 85%
    15:00 -2°C° 0 mm 4 mps 767 mmHg 87%
    16:00 -3°C° 0 mm 4 mps 767 mmHg 89%
    17:00 -3°C° 0 mm 4 mps 767 mmHg 91%
    18:00 -3°C° 0 mm 4 mps 767 mmHg 91%
    19:00 -3°C° 0 mm 4 mps 766 mmHg 91%
    20:00 -3°C° 0 mm 4 mps 766 mmHg 91%
    21:00 -3°C° 0 mm 4 mps 766 mmHg 91%
    22:00 -3°C° 0 mm 4 mps 766 mmHg 91%
    23:00 -3°C° 0 mm 4 mps 765 mmHg 91%

    Tomorrow, 17 November, Saturday

    Time Temperature Precipitation Wind Pressure Humidity
    00:00 -3°C° 0.1 mm 4 mps 765 mmHg 90%
    01:00 -2°C° 0.1 mm 4 mps 765 mmHg 89%
    02:00 -2°C° 0.1 mm 5 mps 764 mmHg 88%
    03:00 -2°C° 0.7 mm 5 mps 764 mmHg 89%
    04:00 -1°C° 0.7 mm 5 mps 763 mmHg 89%
    05:00 -1°C° 0.7 mm 5 mps 762 mmHg 90%
    06:00 -1°C° 0.9 mm 5 mps 762 mmHg 90%
    07:00 -1°C° 0.9 mm 5 mps 761 mmHg 91%
    08:00 0°C° 0.9 mm 5 mps 761 mmHg 91%
    09:00 0°C° 1.4 mm 5 mps 760 mmHg 91%
    10:00 0°C° 1.4 mm 5 mps 759 mmHg 91%
    11:00 0°C° 1.4 mm 5 mps 759 mmHg 91%
    12:00 0°C° 0.9 mm 5 mps 758 mmHg 91%
    13:00 0°C° 0.9 mm 5 mps 757 mmHg 91%
    14:00 0°C° 0.9 mm 5 mps 757 mmHg 91%
    15:00 -1°C° 0.2 mm 6 mps 756 mmHg 91%
    16:00 -1°C° 0.2 mm 6 mps 755 mmHg 92%
    17:00 -1°C° 0.2 mm 6 mps 754 mmHg 92%
    18:00 +1°C° 0.1 mm 5 mps 754 mmHg 93%
    19:00 +1°C° 0.1 mm 5 mps 753 mmHg 93%
    20:00 +1°C° 0.1 mm 5 mps 752 mmHg 94%
    21:00 +1°C° 0.1 mm 5 mps 751 mmHg 94%
    22:00 +1°C° 0.1 mm 5 mps 751 mmHg 94%
    23:00 +1°C° 0.1 mm 4 mps 750 mmHg 94%

    Day after tomorrow, 18 November, Sunday

    Time Temperature Precipitation Wind Pressure Humidity
    00:00 +1°C° 0.3 mm 4 mps 749 mmHg 95%
    01:00 0°C° 0.3 mm 4 mps 749 mmHg 95%
    02:00 +1°C° 0.3 mm 3 mps 749 mmHg 95%
    03:00 +1°C° 0.2 mm 3 mps 748 mmHg 96%
    04:00 +1°C° 0.2 mm 3 mps 748 mmHg 97%
    05:00 +2°C° 0.2 mm 2 mps 747 mmHg 97%
    06:00 +2°C° 0.1 mm 2 mps 748 mmHg 97%
    07:00 +2°C° 0.1 mm 2 mps 748 mmHg 97%
    08:00 +2°C° 0.1 mm 2 mps 748 mmHg 97%
    09:00 +2°C° 0.2 mm 2 mps 748 mmHg 96%
    10:00 +1°C° 0.2 mm 3 mps 748 mmHg 95%
    11:00 +2°C° 0.2 mm 3 mps 749 mmHg 95%
    12:00 +2°C° 0.2 mm 3 mps 749 mmHg 93%
    13:00 +2°C° 0.2 mm 3 mps 749 mmHg 92%
    14:00 +1°C° 0.2 mm 4 mps 750 mmHg 91%
    15:00 +1°C° 0.2 mm 4 mps 750 mmHg 91%
    16:00 +1°C° 0.2 mm 4 mps 751 mmHg 92%
    17:00 0°C° 0.2 mm 4 mps 751 mmHg 92%
    18:00 0°C° 0 mm 4 mps 752 mmHg 91%
    19:00 0°C° 0 mm 5 mps 752 mmHg 91%
    20:00 0°C° 0 mm 5 mps 753 mmHg 90%
    21:00 0°C° 0.1 mm 5 mps 754 mmHg 90%
    22:00 0°C° 0.1 mm 5 mps 754 mmHg 89%
    23:00 0°C° 0.1 mm 5 mps 755 mmHg 89%

    19 November, Monday

    Time Temperature Precipitation Wind Pressure Humidity
    00:00 0°C° 0.1 mm 5 mps 755 mmHg 89%
    01:00 0°C° 0.1 mm 5 mps 756 mmHg 89%
    02:00 0°C° 0.1 mm 5 mps 756 mmHg 89%
    03:00 0°C° 0.1 mm 5 mps 757 mmHg 89%
    04:00 0°C° 0.1 mm 5 mps 757 mmHg 88%
    05:00 -1°C° 0.1 mm 5 mps 757 mmHg 88%
    06:00 -1°C° 0 mm 5 mps 758 mmHg 88%
    07:00 -1°C° 0 mm 5 mps 758 mmHg 88%
    08:00 -1°C° 0 mm 5 mps 759 mmHg 88%
    09:00 -1°C° 0.1 mm 5 mps 759 mmHg 87%
    10:00 -1°C° 0.1 mm 5 mps 760 mmHg 86%
    11:00 -1°C° 0.1 mm 4 mps 760 mmHg 85%
    12:00 -1°C° 0.1 mm 4 mps 760 mmHg 85%
    13:00 -2°C° 0.1 mm 4 mps 761 mmHg 85%
    14:00 -2°C° 0.1 mm 4 mps 761 mmHg 85%
    15:00 -2°C° 0.1 mm 4 mps 761 mmHg 87%
    16:00 -1°C° 0.1 mm 3 mps 761 mmHg 89%
    17:00 -1°C° 0.1 mm 3 mps 761 mmHg 90%
    18:00 -1°C° 0.1 mm 3 mps 761 mmHg 91%
    19:00 -1°C° 0.1 mm 3 mps 761 mmHg 91%
    20:00 -1°C° 0.1 mm 3 mps 762 mmHg 92%
    21:00 -1°C° 0.1 mm 3 mps 762 mmHg 92%
    22:00 -1°C° 0.1 mm 2 mps 762 mmHg 93%
    23:00 -1°C° 0.1 mm 2 mps 762 mmHg 94%

    20 November, Tuesday

    Time Temperature Precipitation Wind Pressure Humidity
    00:00 -1°C° 0 mm 2 mps 762 mmHg 94%
    01:00 -1°C° 0 mm 2 mps 762 mmHg 95%
    02:00 -1°C° 0 mm 2 mps 762 mmHg 95%
    03:00 -1°C° 0 mm 2 mps 762 mmHg 95%
    04:00 -2°C° 0 mm 2 mps 762 mmHg 95%
    05:00 -2°C° 0 mm 2 mps 761 mmHg 95%
    06:00 -2°C° 0 mm 2 mps 761 mmHg 95%
    07:00 -1°C° 0 mm 1 mps 761 mmHg 96%
    08:00 -1°C° 0 mm 1 mps 761 mmHg 96%
    09:00 -1°C° 0 mm 1 mps 761 mmHg 94%
    10:00 0°C° 0 mm 1 mps 760 mmHg 91%
    11:00 +1°C° 0 mm 1 mps 760 mmHg 89%
    12:00 +1°C° 0 mm 1 mps 760 mmHg 90%
    13:00 0°C° 0 mm 1 mps 759 mmHg 91%
    14:00 0°C° 0 mm 1 mps 759 mmHg 92%
    15:00 0°C° 0 mm 1 mps 759 mmHg 93%
    16:00 -1°C° 0 mm 1 mps 758 mmHg 93%
    17:00 -1°C° 0 mm 1 mps 758 mmHg 94%
    18:00 -1°C° 0 mm 1 mps 758 mmHg 93%
    19:00 -1°C° 0 mm 1 mps 758 mmHg 92%
    20:00 -1°C° 0 mm 1 mps 758 mmHg 92%
    21:00 -1°C° 0 mm 1 mps 758 mmHg 91%
    22:00 -3°C° 0 mm 0 mps 758 mmHg 91%
    23:00 -3°C° 0 mm 0 mps 757 mmHg 90%

    21 November, Wednesday

    Time Temperature Precipitation Wind Pressure Humidity
    00:00 -2°C° 0 mm 1 mps 757 mmHg 91%
    01:00 -2°C° 0 mm 1 mps 757 mmHg 91%
    02:00 -2°C° 0 mm 1 mps 757 mmHg 92%
    03:00 -2°C° 0 mm 1 mps 757 mmHg 92%
    04:00 -2°C° 0 mm 1 mps 757 mmHg 93%
    05:00 -2°C° 0 mm 1 mps 757 mmHg 94%
    06:00 -2°C° 0 mm 1 mps 758 mmHg 94%
    07:00 -2°C° 0 mm 1 mps 758 mmHg 94%
    08:00 -2°C° 0 mm 1 mps 758 mmHg 94%
    09:00 -2°C° 0 mm 1 mps 758 mmHg 91%
    10:00 -3°C° 0 mm 2 mps 758 mmHg 88%
    11:00 -2°C° 0 mm 2 mps 758 mmHg 85%
    12:00 -2°C° 0 mm 2 mps 758 mmHg 86%
    13:00 -2°C° 0 mm 2 mps 758 mmHg 87%
    14:00 -2°C° 0 mm 2 mps 758 mmHg 88%
    15:00 -3°C° 0 mm 2 mps 759 mmHg 90%
    16:00 -3°C° 0 mm 2 mps 759 mmHg 92%
    17:00 -4°C° 0 mm 2 mps 759 mmHg 94%
    18:00 -4°C° 0 mm 2 mps 759 mmHg 94%
    19:00 -3°C° 0 mm 2 mps 759 mmHg 94%
    20:00 -3°C° 0 mm 2 mps 759 mmHg 94%
    21:00 -3°C° 0 mm 2 mps 759 mmHg 92%
    22:00 -3°C° 0 mm 2 mps 759 mmHg 91%
    23:00 -2°C° 0 mm 2 mps 759 mmHg 89%
    Show more